Ontario, CA

1:31 PM PST on November 22, 2017 (GMT -0800)
Ontario International

Weather History for KONT - May, 2013

Change the Weather History Date:

Wednesday, May 29, 2013

  Actual Average Record
Temperature  
Mean Temperature 72 °F 69 °F  
Max Temperature 85 °F 81 °F 99 °F (2002)
Min Temperature 58 °F 57 °F 49 °F (2010)
Degree Days  
Heating Degree Days 0 1  
Month to date heating degree days 9 37  
Since 1 July heating degree days 1271 1530  
Cooling Degree Days 7 5  
Month to date cooling degree days 176 99  
Year to date cooling degree days 272 158  
Growing Degree Days 20 (Base 50)    
Moisture  
Dew Point 54 °F    
Average Humidity 59    
Maximum Humidity 86    
Minimum Humidity 32    
Precipitation  
Precipitation 0.00 in 0.00 in 0.04 in (1967)
Month to date precipitation 0.37 0.29  
Year to date precipitation 2.79 10.25  
Since 1 July precipitation 5.56  
Snow  
Snow 0.00 in - - ()
Month to date snowfall 0.0  
Year to date snowfall 0.0  
Snow Depth 0.00 in    
Sea Level Pressure  
Sea Level Pressure 29.74 in    
Wind  
Wind Speed 6 mph (WSW)    
Max Wind Speed 17 mph    
Max Gust Speed 23 mph    
Visibility 10 miles    
Events Fog    
T = Trace of Precipitation, MM = Missing Value Source: NWS Daily Summary

Daily Weather History Graph

Daily Weather History Graph

Search for Another Location

Airport or City:

Trip Planner

Search our weather history database for the weather conditions in past years. The results will help you decide how hot, cold, wet, or windy it might be!

Date:

Astronomy

May. 29, 2013 Rise Set
Actual Time 5:40 AM PDT 7:55 PM PDT
Civil Twilight 5:12 AM PDT 8:23 PM PDT
Nautical Twilight 4:37 AM PDT 8:58 PM PDT
Astronomical Twilight 3:59 AM PDT 9:36 PM PDT
Moon No Moon Rise 10:38 AM PDT (5/29)
Length of Visible Light 15h 11m
Length of Day
14h 14m
Waning Gibbous, 72% of the Moon is Illuminated
May 29
Waning Gibbous
May 31
Last Quarter
Jun 8
New
Jun 16
First Quarter
Jun 23
Full

Hourly Weather History & Observations

Time (PDT) Temp. Heat Index Dew Point Humidity Pressure Visibility Wind Dir Wind Speed Gust Speed Precip Events Conditions
12:53 AM 62.1 °F - 55.0 °F 78% 29.76 in 10.0 mi WSW 4.6 mph - N/A   Clear
1:53 AM 61.0 °F - 55.0 °F 81% 29.77 in 10.0 mi West 5.8 mph - N/A   Clear
2:53 AM 61.0 °F - 55.0 °F 81% 29.75 in 10.0 mi Variable 3.5 mph - N/A   Clear
3:53 AM 60.1 °F - 55.0 °F 83% 29.74 in 10.0 mi SW 3.5 mph - N/A   Clear
4:53 AM 60.1 °F - 55.9 °F 86% 29.74 in 10.0 mi Calm Calm - N/A   Clear
5:53 AM 57.9 °F - 54.0 °F 87% 29.76 in 10.0 mi Calm Calm - N/A   Clear
6:53 AM 60.1 °F - 55.0 °F 83% 29.78 in 10.0 mi WNW 5.8 mph - N/A Fog Clear
7:53 AM 63.0 °F - 55.0 °F 75% 29.78 in 10.0 mi Calm Calm - N/A   Partly Cloudy
8:53 AM 66.0 °F - 55.9 °F 70% 29.78 in 10.0 mi Calm Calm - N/A   Partly Cloudy
9:53 AM 69.1 °F - 55.9 °F 63% 29.78 in 10.0 mi Variable 5.8 mph - N/A   Clear
10:53 AM 73.0 °F - 55.0 °F 53% 29.77 in 10.0 mi Variable 5.8 mph - N/A   Clear
11:53 AM 77.0 °F - 52.0 °F 42% 29.76 in 10.0 mi SW 8.1 mph 17.3 mph N/A   Partly Cloudy
12:53 PM 82.9 °F - 52.0 °F 34% 29.74 in 10.0 mi West 12.7 mph - N/A   Partly Cloudy
1:53 PM 84.0 °F 82.5 °F 53.1 °F 34% 29.71 in 10.0 mi West 9.2 mph - N/A   Clear
2:53 PM 84.0 °F 82.9 °F 55.0 °F 37% 29.70 in 10.0 mi WSW 8.1 mph - N/A   Clear
3:53 PM 84.0 °F 82.6 °F 54.0 °F 35% 29.69 in 10.0 mi WSW 11.5 mph 20.7 mph N/A   Clear
4:53 PM 84.0 °F - 51.1 °F 32% 29.68 in 10.0 mi WSW 11.5 mph 20.7 mph N/A   Clear
5:53 PM 82.0 °F - 48.9 °F 31% 29.68 in 10.0 mi WSW 11.5 mph 19.6 mph N/A   Clear
6:53 PM 78.1 °F - 53.1 °F 42% 29.69 in 10.0 mi SW 13.8 mph 23.0 mph N/A   Clear
7:53 PM 73.0 °F - 54.0 °F 51% 29.70 in 10.0 mi SW 8.1 mph - N/A   Partly Cloudy
8:53 PM 70.0 °F - 54.0 °F 57% 29.73 in 10.0 mi WSW 8.1 mph - N/A   Clear
9:53 PM 68.0 °F - 52.0 °F 56% 29.75 in 10.0 mi West 10.4 mph - N/A   Clear
10:53 PM 66.0 °F - 53.1 °F 63% 29.76 in 10.0 mi WNW 9.2 mph - N/A   Clear
11:53 PM 66.0 °F - 53.1 °F 63% 29.76 in 10.0 mi West 4.6 mph - N/A   Clear